• în România
  • Lista ţărilor
  • Pe 7 zile
  • Temperatura apei
  • Hartă satelitară
  • Meteo pe hartă
  • Widget-uri
  • user-avatar
    Intrare

    Meteo pe oră la Lubango

    Astăzi, 20 Ianuarie, Sâmbătă

    Timp Temperatura Precipitaţii Vânt Presiune Umiditate
    00:00 +16°C° 0,1 mm 1 m/s 607 mmHg 88%
    01:00 +15°C° 0 mm 1 m/s 607 mmHg 90%
    02:00 +15°C° 0,6 mm 1 m/s 607 mmHg 91%
    03:00 +15°C° 0,6 mm 1 m/s 607 mmHg 91%
    04:00 +15°C° 0,6 mm 1 m/s 607 mmHg 92%
    05:00 +15°C° 0,9 mm 1 m/s 607 mmHg 91%
    06:00 +15°C° 0,9 mm 1 m/s 607 mmHg 90%
    07:00 +16°C° 0 mm 1 m/s 608 mmHg 87%
    08:00 +19°C° 0,2 mm 1 m/s 608 mmHg 79%
    09:00 +21°C° 0,2 mm 1 m/s 609 mmHg 71%
    10:00 +21°C° 0,2 mm 2 m/s 610 mmHg 63%
    11:00 +23°C° 0,4 mm 2 m/s 609 mmHg 60%
    12:00 +24°C° 0,4 mm 2 m/s 609 mmHg 58%
    13:00 +24°C° 0,4 mm 2 m/s 609 mmHg 55%
    14:00 +24°C° 1,6 mm 2 m/s 609 mmHg 58%
    15:00 +23°C° 1,6 mm 2 m/s 608 mmHg 62%
    16:00 +22°C° 1,6 mm 3 m/s 608 mmHg 65%
    17:00 +20°C° 2,3 mm 2 m/s 608 mmHg 72%
    18:00 +19°C° 2,3 mm 2 m/s 607 mmHg 79%
    19:00 +17°C° 2,3 mm 2 m/s 607 mmHg 87%
    20:00 +17°C° 1,6 mm 2 m/s 607 mmHg 88%
    21:00 +16°C° 1,6 mm 2 m/s 608 mmHg 90%
    22:00 +16°C° 1,6 mm 1 m/s 608 mmHg 92%
    23:00 +16°C° 1 mm 1 m/s 608 mmHg 93%

    Mâine, 21 Ianuarie, Duminică

    Timp Temperatura Precipitaţii Vânt Presiune Umiditate
    00:00 +15°C° 1 mm 1 m/s 608 mmHg 93%
    01:00 +15°C° 1 mm 1 m/s 608 mmHg 94%
    02:00 +15°C° 0,9 mm 1 m/s 608 mmHg 94%
    03:00 +15°C° 0,9 mm 1 m/s 607 mmHg 94%
    04:00 +15°C° 0,9 mm 1 m/s 607 mmHg 94%
    05:00 +15°C° 0,6 mm 1 m/s 608 mmHg 94%
    06:00 +15°C° 0,6 mm 1 m/s 608 mmHg 93%
    07:00 +15°C° 0,6 mm 1 m/s 608 mmHg 93%
    08:00 +16°C° 0,8 mm 1 m/s 609 mmHg 90%
    09:00 +16°C° 0,8 mm 1 m/s 609 mmHg 88%
    10:00 +18°C° 0,8 mm 1 m/s 610 mmHg 85%
    11:00 +18°C° 0,8 mm 1 m/s 609 mmHg 83%
    12:00 +18°C° 0,8 mm 2 m/s 609 mmHg 82%
    13:00 +18°C° 0,8 mm 2 m/s 609 mmHg 80%
    14:00 +18°C° 1,1 mm 1 m/s 609 mmHg 82%
    15:00 +18°C° 1,1 mm 1 m/s 608 mmHg 83%
    16:00 +18°C° 1,1 mm 1 m/s 608 mmHg 85%
    17:00 +16°C° 0,5 mm 1 m/s 608 mmHg 87%
    18:00 +16°C° 0,5 mm 1 m/s 608 mmHg 90%
    19:00 +15°C° 0,5 mm 1 m/s 608 mmHg 92%
    20:00 +15°C° 0,2 mm 1 m/s 608 mmHg 93%
    21:00 +15°C° 0,2 mm 1 m/s 608 mmHg 93%
    22:00 +15°C° 0,2 mm 1 m/s 609 mmHg 94%
    23:00 +14°C° 0,2 mm 1 m/s 608 mmHg 94%

    Poimâine, 22 Ianuarie, Luni

    Timp Temperatura Precipitaţii Vânt Presiune Umiditate
    00:00 +14°C° 0,2 mm 1 m/s 608 mmHg 94%
    01:00 +14°C° 0,2 mm 1 m/s 608 mmHg 95%
    02:00 +13°C° 0,8 mm 0 m/s 608 mmHg 94%
    03:00 +13°C° 0,8 mm 0 m/s 607 mmHg 94%
    04:00 +13°C° 0,8 mm 0 m/s 607 mmHg 94%
    05:00 +13°C° 1,1 mm 0 m/s 608 mmHg 94%
    06:00 +13°C° 1,1 mm 0 m/s 608 mmHg 93%
    07:00 +13°C° 1,1 mm 0 m/s 608 mmHg 92%
    08:00 +14°C° 1,7 mm 0 m/s 609 mmHg 90%
    09:00 +14°C° 1,7 mm 0 m/s 609 mmHg 87%
    10:00 +15°C° 1,7 mm 0 m/s 609 mmHg 85%
    11:00 +16°C° 0,5 mm 0 m/s 609 mmHg 81%
    12:00 +18°C° 0,5 mm 1 m/s 609 mmHg 77%
    13:00 +19°C° 0,5 mm 1 m/s 609 mmHg 74%
    14:00 +19°C° 0,6 mm 1 m/s 609 mmHg 73%
    15:00 +20°C° 0,6 mm 1 m/s 608 mmHg 73%
    16:00 +19°C° 0,6 mm 2 m/s 608 mmHg 73%
    17:00 +18°C° 1,2 mm 2 m/s 608 mmHg 78%
    18:00 +18°C° 1,2 mm 1 m/s 608 mmHg 84%
    19:00 +16°C° 1,2 mm 1 m/s 608 mmHg 89%
    20:00 +15°C° 1,1 mm 1 m/s 608 mmHg 90%
    21:00 +15°C° 1,1 mm 1 m/s 608 mmHg 91%
    22:00 +15°C° 1,1 mm 1 m/s 609 mmHg 92%
    23:00 +15°C° 0,7 mm 1 m/s 608 mmHg 93%

    23 Ianuarie, Marţi

    Timp Temperatura Precipitaţii Vânt Presiune Umiditate
    00:00 +15°C° 0,7 mm 1 m/s 608 mmHg 94%
    01:00 +13°C° 0,7 mm 0 m/s 608 mmHg 94%
    02:00 +13°C° 0,9 mm 0 m/s 607 mmHg 95%
    03:00 +13°C° 0,9 mm 0 m/s 607 mmHg 95%
    04:00 +13°C° 0,9 mm 0 m/s 607 mmHg 95%
    05:00 +13°C° 0,5 mm 0 m/s 607 mmHg 94%
    06:00 +13°C° 0,5 mm 0 m/s 607 mmHg 93%
    07:00 +14°C° 0,5 mm 0 m/s 608 mmHg 92%
    08:00 +15°C° 0,2 mm 0 m/s 608 mmHg 86%
    09:00 +16°C° 0,2 mm 0 m/s 609 mmHg 80%
    10:00 +20°C° 0,2 mm 1 m/s 609 mmHg 73%
    11:00 +21°C° 0,3 mm 1 m/s 609 mmHg 69%
    12:00 +22°C° 0,3 mm 1 m/s 609 mmHg 64%
    13:00 +23°C° 0,3 mm 2 m/s 609 mmHg 59%
    14:00 +21°C° 1,2 mm 2 m/s 608 mmHg 64%
    15:00 +20°C° 1,2 mm 2 m/s 607 mmHg 68%
    16:00 +20°C° 1,2 mm 2 m/s 607 mmHg 72%
    17:00 +19°C° 1,2 mm 2 m/s 607 mmHg 77%
    18:00 +17°C° 1,2 mm 2 m/s 607 mmHg 82%
    19:00 +16°C° 1,2 mm 2 m/s 607 mmHg 86%
    20:00 +16°C° 0,7 mm 1 m/s 607 mmHg 88%
    21:00 +16°C° 0,7 mm 1 m/s 607 mmHg 89%
    22:00 +15°C° 0,7 mm 1 m/s 608 mmHg 90%
    23:00 +15°C° 0,7 mm 1 m/s 607 mmHg 91%

    24 Ianuarie, Miercuri

    Timp Temperatura Precipitaţii Vânt Presiune Umiditate
    00:00 +15°C° 0,7 mm 1 m/s 607 mmHg 91%
    01:00 +15°C° 0,7 mm 1 m/s 607 mmHg 92%
    02:00 +15°C° 0,8 mm 1 m/s 607 mmHg 92%
    03:00 +15°C° 0,8 mm 1 m/s 606 mmHg 93%
    04:00 +13°C° 0,8 mm 0 m/s 606 mmHg 93%
    05:00 +14°C° 0,7 mm 0 m/s 607 mmHg 92%
    06:00 +14°C° 0,7 mm 0 m/s 607 mmHg 91%
    07:00 +14°C° 0,7 mm 0 m/s 608 mmHg 90%
    08:00 +16°C° 0,7 mm 1 m/s 608 mmHg 87%
    09:00 +16°C° 0,7 mm 1 m/s 608 mmHg 84%
    10:00 +18°C° 0,7 mm 1 m/s 609 mmHg 80%
    11:00 +19°C° 0,8 mm 1 m/s 609 mmHg 78%
    12:00 +20°C° 0,8 mm 1 m/s 609 mmHg 75%
    13:00 +20°C° 0,8 mm 2 m/s 608 mmHg 72%
    14:00 +20°C° 1,5 mm 1 m/s 608 mmHg 74%
    15:00 +20°C° 1,5 mm 1 m/s 608 mmHg 76%
    16:00 +19°C° 1,5 mm 1 m/s 607 mmHg 78%
    17:00 +19°C° 1,2 mm 1 m/s 607 mmHg 82%
    18:00 +18°C° 1,2 mm 1 m/s 607 mmHg 86%
    19:00 +16°C° 1,2 mm 1 m/s 607 mmHg 90%
    20:00 +16°C° 0,4 mm 1 m/s 607 mmHg 91%
    21:00 +15°C° 0,4 mm 1 m/s 608 mmHg 92%
    22:00 +15°C° 0,4 mm 1 m/s 608 mmHg 93%
    23:00 +15°C° 0 mm 1 m/s 607 mmHg 94%

    25 Ianuarie, Joi

    Timp Temperatura Precipitaţii Vânt Presiune Umiditate
    00:00 +14°C° 0 mm 1 m/s 607 mmHg 94%
    01:00 +14°C° 0 mm 1 m/s 607 mmHg 95%
    02:00 +14°C° 0 mm 1 m/s 607 mmHg 94%
    03:00 +13°C° 0 mm 0 m/s 607 mmHg 94%
    04:00 +13°C° 0 mm 0 m/s 607 mmHg 93%
    05:00 +13°C° 0,1 mm 0 m/s 607 mmHg 92%
    06:00 +14°C° 0,1 mm 0 m/s 607 mmHg 91%
    07:00 +14°C° 0,1 mm 0 m/s 608 mmHg 89%
    08:00 +18°C° 0,1 mm 1 m/s 608 mmHg 82%
    09:00 +19°C° 0,1 mm 1 m/s 609 mmHg 74%
    10:00 +21°C° 0,1 mm 1 m/s 610 mmHg 67%
    11:00 +22°C° 0,6 mm 1 m/s 610 mmHg 64%
    12:00 +22°C° 0,6 mm 1 m/s 609 mmHg 61%
    13:00 +23°C° 0,6 mm 1 m/s 609 mmHg 58%
    14:00 +22°C° 1,7 mm 1 m/s 609 mmHg 63%
    15:00 +21°C° 1,7 mm 1 m/s 608 mmHg 67%
    16:00 +20°C° 1,7 mm 2 m/s 607 mmHg 72%
    17:00 +20°C° 0,9 mm 1 m/s 607 mmHg 76%
    18:00 +19°C° 0,9 mm 1 m/s 607 mmHg 81%
    19:00 +18°C° 0,9 mm 1 m/s 607 mmHg 86%
    20:00 +16°C° 0,4 mm 1 m/s 607 mmHg 87%
    21:00 +16°C° 0,4 mm 1 m/s 608 mmHg 88%
    22:00 +16°C° 0,4 mm 1 m/s 608 mmHg 88%
    23:00 +15°C° 0,3 mm 1 m/s 608 mmHg 89%
    Arată mai mult